Theta_e
308 306 306 306 305 305 306 307 309 309 310 311 310 310 312 311 311 312 313 313 313 313 312 310 310 310 310 311 312 313 312 312 311 310 309 309 309 309 309 310 312 314 315 318 317 314 313 315 315 317 318 319 318 318 318 319 319 320 321 319 318 318 317 316 316 315 315 314 313 313 312 312 312 311 311 311 310 310 309 308 307 307 306 305 304 304 303
307 306 307 307 306 307 307 307 308 308 309 310 310 310 310 311 312 313 313 314 313 311 309 310 311 311 310 311 311 311 311 311 311 311 310 310 310 310 310 310 312 313 314 315 315 312 311 313 314 315 316 316 316 317 318 318 318 319 320 319 318 317 316 316 316 315 315 314 313 313 312 312 311 311 311 310 309 309 308 307 307 306 305 304 304 303 303
308 306 307 307 306 306 306 306 307 307 308 309 308 308 309 309 310 312 312 313 313 311 310 310 311 311 310 309 309 310 311 311 312 312 311 311 311 310 310 310 310 311 314 318 317 313 311 313 313 314 315 315 315 316 317 317 317 318 318 318 317 316 316 316 315 315 315 314 313 312 311 311 311 310 309 309 308 308 308 307 306 305 304 304 303 303 302
309 306 306 306 305 306 306 305 307 308 309 310 309 309 310 309 309 310 311 312 312 311 310 310 309 310 310 310 310 311 313 312 312 312 312 311 311 311 311 311 311 311 313 318 318 314 312 313 313 314 314 315 316 317 317 317 317 317 317 316 316 316 315 316 315 315 314 313 312 311 311 311 310 309 308 308 308 307 307 306 305 305 304 303 303 302 302
309 306 306 307 307 307 306 307 310 310 309 310 309 310 311 311 309 308 310 312 311 310 310 309 309 310 311 311 311 311 312 313 312 312 311 311 311 311 311 311 311 310 311 313 314 312 312 312 313 313 313 315 317 317 317 318 317 316 316 315 315 315 315 315 314 314 313 312 311 311 310 310 309 308 308 307 307 307 306 305 305 304 303 303 302 301 301
308 308 308 309 308 306 306 307 310 309 308 309 309 309 311 311 309 307 308 310 310 310 311 312 311 311 311 311 310 310 311 311 311 311 311 311 311 310 310 310 311 310 309 310 311 313 312 312 312 313 314 315 317 317 317 317 316 316 315 314 314 314 314 313 312 311 311 311 311 310 309 308 308 307 307 307 306 306 305 305 304 303 302 302 301 301 300
309 308 308 308 307 306 306 308 309 309 309 311 311 310 311 311 311 311 311 311 311 310 311 311 310 310 310 310 310 310 310 310 310 310 310 309 309 309 309 310 311 310 308 308 310 311 312 312 312 313 314 314 315 316 316 317 316 315 315 313 313 313 312 312 311 310 310 310 309 309 308 307 307 307 306 306 306 305 305 304 303 302 301 301 300 300 300
308 307 307 307 305 306 306 308 310 313 314 314 312 313 314 312 311 312 312 311 311 310 309 309 308 308 308 308 309 310 309 308 309 309 308 308 308 308 308 310 310 310 309 310 310 310 311 311 311 313 313 314 314 315 316 316 316 315 314 313 312 311 311 311 310 310 309 308 308 307 307 307 307 306 306 306 305 304 303 302 301 301 300 300 299 299 299
307 306 308 307 306 306 306 307 311 314 315 315 312 312 313 312 310 310 311 311 311 310 309 309 309 309 308 308 309 309 308 307 307 307 307 307 307 308 308 309 309 309 310 311 310 311 312 311 311 312 313 313 314 314 314 315 315 314 313 311 310 310 310 310 309 309 308 307 307 306 306 306 306 306 305 305 303 302 301 300 300 300 299 299 298 298 298
308 307 307 307 306 306 306 310 313 313 313 314 312 310 310 309 309 310 309 309 310 310 310 311 310 309 309 308 309 309 308 307 306 306 306 306 306 307 307 307 308 308 310 310 310 311 313 312 311 313 313 312 313 313 312 313 313 312 311 310 309 309 309 309 308 307 307 306 306 306 306 306 305 305 304 303 301 300 300 300 299 299 298 298 297 297 297
309 308 307 307 306 305 307 312 312 311 311 313 311 310 308 307 308 309 309 308 309 309 310 311 310 308 308 307 307 307 307 306 305 306 306 305 305 307 307 307 307 307 308 309 309 310 313 313 312 312 313 312 312 312 312 311 311 310 310 309 309 308 308 308 307 306 306 305 305 305 305 304 304 303 303 302 300 300 300 299 298 298 297 297 297 296 296
308 308 307 306 305 306 309 311 310 309 310 310 310 309 307 306 307 308 308 308 308 309 310 309 308 309 308 307 306 306 306 305 305 305 306 306 306 306 306 306 306 306 307 309 309 310 312 313 312 312 312 312 312 312 311 311 310 309 309 309 308 308 308 307 306 305 305 305 304 304 304 303 303 302 301 301 300 300 299 298 298 297 297 296 296 296 295
308 308 307 306 306 308 308 309 309 309 309 308 309 308 307 305 306 307 307 308 308 309 309 308 308 309 309 307 306 306 305 305 305 305 305 305 306 306 306 306 305 307 308 309 308 309 310 310 311 312 311 311 312 311 310 310 309 308 308 308 307 306 306 304 304 304 304 303 303 302 302 301 301 300 300 300 300 299 298 297 297 297 296 296 296 295 295
308 308 307 306 306 306 307 309 309 308 308 308 308 307 305 304 304 306 307 308 308 309 310 311 310 309 308 307 307 306 306 306 306 305 304 305 306 306 305 305 305 308 309 308 308 309 308 309 311 312 311 310 310 310 310 309 308 306 306 306 305 304 303 302 302 302 302 301 301 300 300 300 300 300 301 300 300 299 298 297 297 297 296 296 295 294 295
305 305 304 304 305 306 308 308 305 306 309 310 307 305 305 305 305 307 308 308 307 308 309 311 310 308 307 307 307 307 307 307 306 304 304 305 306 305 305 305 305 307 308 308 308 307 307 309 310 310 310 311 310 309 309 307 305 304 304 304 303 302 301 301 301 300 300 300 300 300 300 300 300 300 300 300 299 298 297 297 297 296 296 295 295 294 294
303 303 303 303 304 306 307 304 303 305 310 309 305 304 305 306 307 308 308 308 308 307 308 308 308 307 306 306 306 307 307 306 305 304 303 304 305 305 305 304 305 305 307 308 308 307 307 308 309 308 308 310 309 308 307 305 303 303 303 302 301 301 300 301 300 300 299 299 299 299 299 299 299 298 299 299 298 298 297 297 296 296 296 295 294 294 293
301 301 303 303 303 304 303 302 303 304 305 305 306 306 306 307 308 307 307 308 308 308 307 307 307 306 305 305 306 306 305 304 304 303 303 304 305 305 305 304 304 305 308 308 308 307 307 307 308 308 308 309 308 307 305 304 303 303 302 301 301 301 300 300 300 299 299 299 299 299 298 298 298 298 298 298 298 297 297 296 296 296 295 294 294 293 293
301 301 302 302 302 302 302 302 303 302 302 305 307 307 307 308 309 308 307 307 308 308 308 307 306 305 305 305 305 304 304 303 303 302 303 304 305 306 305 305 305 306 308 308 307 307 306 306 307 308 308 308 307 305 304 303 303 302 302 301 301 301 300 300 299 299 299 299 299 299 299 299 299 298 298 298 298 297 296 296 296 296 294 293 293 293 292
301 301 301 301 301 301 301 302 302 302 302 304 305 306 307 307 307 307 307 307 308 308 308 307 306 305 305 305 304 303 302 302 302 302 303 304 305 306 306 305 306 307 309 309 308 308 307 307 307 308 308 307 305 304 303 303 302 302 302 302 302 301 300 300 299 299 299 299 299 299 299 299 298 298 298 298 297 297 296 296 296 295 293 292 292 292 292
300 300 300 299 299 300 301 303 304 303 304 305 304 305 306 306 306 307 306 306 307 307 307 307 306 305 305 304 304 303 302 301 301 302 303 304 306 307 306 305 305 307 308 309 308 308 308 307 307 307 306 305 304 303 303 303 303 303 302 302 301 300 300 300 300 299 299 299 299 299 299 299 298 298 298 298 297 297 296 296 295 293 292 292 292 292 292
299 300 299 299 300 300 301 303 305 305 306 305 304 304 304 305 306 308 306 305 305 305 305 306 306 305 305 304 303 302 301 301 301 303 305 306 306 307 306 305 306 307 308 308 308 308 308 307 306 305 304 304 304 304 303 303 303 303 302 301 300 300 300 300 300 300 300 300 299 299 299 298 298 298 298 298 297 297 296 295 294 293 292 292 292 291 292
300 300 298 300 302 301 300 301 303 304 304 303 302 303 305 306 307 307 305 304 304 304 304 304 304 305 305 304 303 302 301 301 302 303 305 306 307 307 306 306 307 308 307 307 307 307 307 307 305 304 304 304 304 304 303 303 303 303 302 301 300 300 300 300 300 300 300 300 299 299 299 298 298 298 298 297 297 297 296 295 294 293 292 292 292 291 291
300 299 298 299 301 300 299 300 301 301 301 301 301 302 304 305 306 305 304 305 306 306 305 303 303 305 305 303 302 302 302 302 302 303 304 306 307 307 306 307 307 307 306 306 306 307 307 306 304 304 304 303 303 303 303 303 302 302 302 301 301 301 301 300 300 300 300 300 300 299 298 298 298 298 297 297 297 297 296 295 294 293 293 293 292 291 290
298 298 299 300 301 300 300 301 301 301 301 302 303 303 303 304 303 302 303 305 306 307 307 304 302 304 304 302 302 302 302 302 303 304 304 305 305 305 305 306 306 306 306 306 306 306 306 305 304 303 303 302 302 302 302 302 302 302 301 301 301 301 301 301 301 301 300 300 299 299 298 298 298 298 297 297 296 296 296 295 294 294 293 293 292 291 290
298 299 301 301 302 302 302 301 301 301 302 303 305 305 305 304 302 301 302 304 304 305 306 305 303 303 302 301 301 302 303 303 303 303 303 304 304 305 305 305 305 305 306 306 306 306 306 305 304 303 303 302 302 302 302 302 302 301 301 301 301 300 300 301 301 300 300 299 299 299 298 298 298 298 297 297 295 295 295 295 295 294 294 293 293 292 291
299 300 302 303 302 302 303 302 302 302 303 303 304 304 303 302 302 301 301 302 303 303 304 304 303 302 302 301 301 302 303 303 303 303 303 304 305 305 305 305 304 305 306 306 305 306 306 305 303 303 302 302 302 302 302 302 302 301 301 301 301 301 301 300 300 299 299 299 299 299 299 299 298 298 297 296 295 295 295 295 295 295 294 294 293 293 291
300 300 302 302 301 301 303 303 303 303 303 302 302 303 302 301 301 301 301 302 303 303 303 303 302 302 302 302 302 303 303 303 303 303 304 304 305 305 305 305 305 305 306 305 305 305 305 303 302 302 302 302 302 302 302 302 302 301 301 301 301 301 301 300 299 299 299 299 299 299 299 299 298 297 296 295 295 295 295 295 295 294 294 294 294 293 292
300 300 300 300 300 300 301 302 302 302 302 301 301 302 302 302 303 303 302 303 303 303 302 302 301 302 302 302 302 303 303 303 304 304 304 305 305 305 304 304 304 304 305 304 304 304 303 302 302 302 302 302 302 302 302 302 302 302 302 302 301 301 300 299 299 299 299 299 299 299 299 298 297 296 296 295 295 295 295 295 294 294 294 294 294 293 292
301 300 300 300 299 300 301 302 301 302 302 302 302 302 304 305 305 304 304 304 302 301 302 302 301 301 303 303 303 302 303 303 304 304 304 304 304 304 303 303 303 303 303 304 304 303 303 302 303 303 303 302 302 302 302 302 302 302 301 301 301 300 299 299 299 299 299 299 300 299 299 298 297 296 295 295 295 296 296 295 295 294 294 294 293 293 292
301 301 301 300 299 300 302 303 303 303 303 303 303 303 305 306 306 305 305 304 302 302 302 302 301 302 303 303 302 302 303 303 303 303 303 303 303 303 303 303 303 303 303 303 303 303 303 303 303 303 303 302 302 302 302 301 302 301 301 300 300 300 300 299 299 300 300 300 300 299 298 297 296 295 295 295 295 295 295 295 295 294 294 293 293 292 291
301 301 301 300 300 301 302 303 303 303 303 302 302 302 303 304 305 305 305 303 303 303 303 302 302 303 302 302 302 302 302 302 302 303 303 302 302 302 303 303 302 302 302 303 303 303 303 303 303 303 303 302 302 302 301 301 301 301 300 300 300 300 300 300 300 300 301 301 301 300 298 297 296 296 296 296 296 295 295 295 295 294 294 293 293 292 291
300 300 300 300 300 300 300 300 300 299 299 300 300 300 301 303 304 305 304 303 302 302 302 302 303 302 301 301 301 302 302 302 302 302 302 302 302 302 301 301 301 301 301 302 303 303 303 303 302 302 302 302 302 301 301 301 302 301 301 301 301 301 301 300 300 301 301 301 301 300 299 298 297 297 296 296 296 296 295 295 295 295 294 293 292 292 291
300 300 299 298 298 298 297 297 297 297 298 299 299 300 302 303 304 303 302 301 301 301 301 302 302 302 301 301 301 301 301 301 301 301 301 301 300 300 299 299 299 298 299 300 301 301 301 301 301 300 301 301 301 302 302 302 303 302 302 302 302 302 301 301 301 301 301 301 300 300 299 298 298 297 297 297 297 296 295 295 295 295 294 293 292 292 291
298 297 296 296 295 295 296 296 296 296 297 298 299 300 302 303 302 301 301 301 302 301 301 302 302 301 300 300 300 300 299 299 299 299 299 299 299 298 297 297 297 297 297 298 298 299 300 301 300 299 299 300 300 301 302 302 302 302 302 302 302 302 302 301 301 301 301 300 300 300 299 299 299 298 298 297 297 296 296 295 295 294 294 293 292 292 291
296 296 295 294 294 294 295 295 296 296 297 299 299 299 300 301 301 300 300 301 301 302 301 301 301 300 299 299 299 298 298 298 298 297 297 297 297 297 296 296 296 296 296 296 296 297 298 299 298 298 298 298 299 300 301 302 302 302 302 302 302 302 302 301 301 301 300 300 300 300 299 298 298 298 297 297 297 296 296 295 295 294 294 293 292 292 291
295 294 294 294 294 294 295 295 296 296 297 298 298 297 298 299 300 299 299 299 300 300 300 300 299 299 298 298 299 298 298 297 297 296 295 295 295 295 295 295 295 295 295 294 294 295 296 297 297 297 297 298 298 299 300 301 301 301 301 301 301 301 301 301 300 300 300 300 299 299 298 298 298 298 297 297 298 297 296 295 294 294 294 293 293 292 291
295 294 294 294 294 294 294 294 295 296 296 297 297 297 297 297 297 297 298 298 298 298 299 299 298 297 297 297 297 297 296 296 295 295 294 294 293 293 294 294 293 294 294 293 293 294 295 296 296 297 297 297 298 299 300 300 300 300 301 301 300 300 300 300 300 300 300 299 299 299 298 298 298 298 297 297 298 298 297 296 295 294 294 294 293 292 291
295 294 294 294 293 293 293 293 293 294 295 296 296 296 296 296 296 296 296 296 297 297 297 297 297 296 296 296 296 296 295 295 294 294 293 293 292 292 292 292 292 292 292 291 292 293 295 296 296 296 297 297 298 298 299 300 300 300 300 300 300 300 299 299 299 299 298 298 298 297 297 297 297 296 296 296 297 297 296 296 296 295 294 294 293 292 291
295 294 294 294 293 293 293 292 292 293 294 294 295 295 295 295 296 295 295 295 296 297 297 296 296 296 296 295 295 295 294 294 293 293 292 292 291 291 291 291 291 291 290 290 291 293 295 295 296 296 296 296 297 298 299 299 299 299 299 299 299 299 298 298 298 297 297 296 296 296 295 295 294 294 294 294 295 295 295 296 296 295 295 294 294 293 292
295 294 294 294 293 293 293 292 292 292 292 293 293 294 294 294 295 295 295 295 295 296 296 296 296 295 295 294 293 293 292 292 291 291 291 291 291 291 290 290 290 289 289 289 291 293 294 295 295 295 296 296 296 297 298 298 298 298 298 298 298 297 297 297 296 296 296 295 295 295 294 293 293 292 292 292 293 293 294 294 294 294 294 294 294 293 292
295 295 294 294 293 293 293 293 292 292 292 292 292 293 293 293 293 293 294 294 294 294 295 295 295 295 294 293 292 291 290 289 289 289 289 290 290 290 290 290 290 289 288 288 289 291 293 295 295 295 295 295 296 296 296 297 297 297 296 296 296 296 296 295 295 295 295 294 294 293 293 292 291 291 291 291 291 291 292 292 292 293 293 293 293 293 292
295 295 295 294 294 293 293 293 292 292 292 292 292 292 292 293 293 293 293 293 293 293 294 294 294 294 294 294 293 291 290 290 289 288 288 288 289 289 289 289 289 288 287 287 288 290 292 294 294 294 295 295 295 295 295 296 296 296 295 295 295 295 294 294 294 294 293 293 292 292 291 291 290 290 290 289 289 290 290 290 291 291 291 291 291 291 291
295 295 295 294 294 294 293 293 293 293 292 292 292 292 292 292 292 292 292 292 292 293 293 293 293 293 294 294 293 293 292 291 291 289 288 287 288 289 289 289 288 288 287 287 288 289 291 293 293 294 294 294 294 294 294 294 294 294 294 294 294 293 293 293 293 293 292 292 291 291 290 290 289 289 289 288 288 288 288 288 289 289 289 290 290 290 290
295 295 294 294 294 294 294 293 293 293 293 293 292 292 292 292 292 293 292 292 292 292 292 292 292 292 292 293 293 293 292 292 291 290 289 287 287 288 289 289 289 288 288 287 288 289 291 292 292 293 293 293 293 293 292 292 292 293 292 292 292 292 292 292 292 292 291 291 291 290 290 289 289 288 288 288 287 287 287 287 287 287 288 288 288 289 289
294 294 294 294 294 293 293 293 293 293 293 293 292 292 292 292 292 292 292 292 292 292 292 291 291 291 291 291 292 292 292 291 290 289 289 288 287 287 288 288 288 288 288 287 287 288 290 291 291 291 292 292 292 291 291 290 290 291 291 291 291 291 290 290 290 290 290 290 290 289 289 288 288 287 287 287 286 286 286 285 285 285 286 286 286 287 287
294 294 294 293 293 293 293 293 293 293 292 292 292 292 292 292 292 292 292 291 291 291 291 291 291 290 290 290 290 290 290 290 289 289 288 288 287 287 287 288 288 288 287 287 286 287 288 289 290 290 290 290 290 290 289 289 289 289 289 289 289 289 289 289 289 289 289 288 288 288 287 287 286 286 286 286 286 285 285 285 285 284 284 284 285 285 286
294 294 294 293 293 293 293 292 292 292 292 291 291 291 292 292 292 292 291 291 291 291 291 290 290 290 289 289 289 289 289 289 289 288 288 287 287 287 287 287 287 287 287 286 286 286 287 288 288 288 288 289 289 288 288 288 288 288 288 288 288 288 288 287 287 287 287 287 287 286 286 286 285 285 285 285 285 285 284 284 284 284 283 283 283 284 284
294 294 294 294 293 293 293 293 292 292 292 292 291 291 291 291 291 291 291 291 291 290 290 289 289 289 289 288 288 288 288 288 288 287 287 287 287 287 286 287 287 287 287 286 285 285 285 286 287 287 287 287 287 287 287 287 287 287 287 287 287 287 287 287 286 286 287 287 286 286 285 285 285 285 285 285 285 285 285 284 283 283 283 282 282 282 282
294 294 293 293 293 293 292 292 291 291 291 291 291 291 290 290 289 289 290 290 290 289 289 288 288 288 288 288 287 287 287 287 287 287 286 286 286 286 286 286 286 286 286 285 284 284 284 285 285 286 285 286 286 286 286 286 286 286 286 286 286 286 285 285 286 286 286 286 286 285 285 284 285 285 285 285 285 285 285 284 282 282 283 282 282 281 281
293 293 293 292 292 292 291 290 290 290 290 290 290 290 289 288 287 287 287 288 288 288 288 288 287 287 287 287 287 287 286 286 286 286 286 286 285 285 285 285 285 285 285 284 284 284 283 283 284 285 285 284 285 285 285 285 284 284 285 285 286 285 284 284 285 285 286 286 285 285 284 283 284 284 285 285 285 285 284 283 282 282 283 283 282 282 282
293 292 292 292 292 291 290 290 289 289 289 289 289 289 288 287 286 285 285 285 285 285 286 287 287 286 286 286 286 286 286 286 285 285 285 285 285 285 284 284 284 284 284 284 284 283 283 283 283 284 284 284 284 284 284 284 284 283 283 283 284 284 284 283 284 284 284 284 285 285 284 283 283 284 284 284 284 284 284 284 283 283 282 282 282 282 283
293 292 292 292 291 291 290 290 289 289 288 288 288 288 288 287 286 285 285 285 284 284 285 285 286 286 285 285 285 285 285 285 284 284 284 284 284 284 284 284 284 284 283 283 283 283 283 282 282 282 282 283 283 284 283 283 282 282 281 282 282 282 282 282 282 283 283 284 284 285 284 284 283 283 283 283 284 284 283 283 283 283 282 282 282 283 283
Wind_Speed
10 8 9 9 9 11 11 12 14 13 8 6 6 8 9 6 4 6 8 6 5 8 9 9 8 5 4 5 5 5 4 4 5 7 8 9 9 10 10 9 7 8 8 9 11 12 9 16 17 14 14 16 15 10 17 17 22 33 37 37 35 34 33 32 32 31 29 27 25 23 22 20 19 17 16 14 13 13 14 14 14 13 13 14 14 14 15
9 8 8 9 9 10 11 14 14 10 7 7 8 9 8 7 6 7 7 8 8 8 7 7 7 4 3 3 3 3 5 5 5 6 6 6 7 8 9 9 8 8 8 9 11 13 11 8 16 20 18 19 21 22 20 17 15 24 35 36 34 34 33 32 31 30 28 27 24 22 21 20 18 16 14 14 14 15 15 15 14 13 13 14 14 13 13
7 6 6 8 9 10 13 15 12 6 6 9 9 9 7 5 6 7 6 8 8 6 5 6 6 5 4 5 6 7 6 7 8 7 7 7 7 8 9 10 10 10 9 9 9 12 16 11 4 14 18 20 22 27 29 24 18 21 29 34 33 33 32 31 30 29 28 26 24 22 20 19 17 14 13 14 15 15 15 14 12 12 14 14 13 11 11
5 3 4 8 9 10 14 14 9 5 6 7 6 6 6 5 6 7 7 6 7 7 5 5 6 7 7 7 7 7 6 7 7 7 7 7 7 8 9 9 10 10 9 9 9 10 16 16 6 4 10 16 20 24 28 28 22 17 20 27 30 31 30 30 30 29 27 25 24 21 19 17 14 13 14 14 14 14 13 11 11 12 12 12 11 11 13
3 3 4 6 6 7 10 8 4 4 6 7 6 6 6 5 4 3 4 5 5 6 6 7 8 9 8 7 6 5 5 6 7 6 6 6 7 8 8 8 10 10 9 10 12 14 18 18 13 6 6 14 21 25 27 27 23 18 16 19 25 28 30 29 29 27 25 24 21 18 15 13 13 13 14 14 13 12 10 10 10 11 10 10 11 13 15
3 1 2 4 5 6 7 3 1 3 5 5 6 7 5 3 2 1 1 1 3 6 8 7 8 7 7 6 5 5 5 5 5 5 5 6 7 8 9 9 10 10 11 15 16 19 22 23 18 9 6 13 18 26 30 28 28 27 22 18 21 27 29 28 26 24 23 21 18 16 14 13 13 13 12 11 10 9 10 11 11 11 10 10 11 13 15
3 1 6 2 7 7 2 2 3 5 4 2 4 6 3 4 6 4 4 5 6 6 6 6 7 7 8 8 6 6 5 4 5 6 6 7 7 8 8 9 9 9 14 19 21 20 21 24 22 12 6 11 13 21 28 28 29 31 27 21 22 26 27 26 24 22 21 19 17 14 13 12 12 11 10 9 9 10 11 10 8 7 7 9 11 13 16
3 1 3 4 8 8 4 4 4 4 3 4 5 6 5 5 5 3 4 5 5 5 6 5 6 7 9 7 5 4 5 7 6 6 7 7 7 8 8 8 9 12 15 19 22 22 20 22 24 16 8 12 16 21 27 27 28 29 28 25 24 26 26 25 24 22 20 18 15 12 11 11 10 9 9 9 8 7 6 4 3 5 7 10 13 15 17
4 4 4 3 7 10 7 4 2 1 1 3 3 1 5 5 5 4 4 5 5 6 6 6 6 7 8 7 5 4 7 9 8 7 7 8 8 8 11 13 16 19 20 20 23 25 23 23 26 22 14 12 15 20 26 29 30 30 29 28 27 27 28 27 24 21 18 16 13 11 11 10 8 7 6 6 4 2 3 4 6 8 11 13 15 17 20
3 4 4 3 5 7 3 2 2 2 4 6 6 2 3 4 5 5 5 5 6 5 5 6 6 7 7 7 6 5 8 11 11 10 9 9 11 11 14 17 20 21 22 22 23 26 25 25 27 24 18 16 14 12 14 22 28 29 29 29 30 30 30 27 23 20 17 14 12 11 9 7 5 3 2 1 1 4 6 7 9 10 13 15 16 19 21
3 3 3 4 5 5 1 4 4 2 3 3 4 3 3 5 5 5 4 4 5 5 4 5 6 6 6 7 6 5 8 10 10 10 10 9 13 15 15 16 19 23 25 24 23 26 25 25 28 25 22 24 23 18 14 17 21 23 26 30 33 32 28 25 23 20 16 13 10 9 7 5 4 3 1 1 5 7 7 8 9 10 12 14 17 20 22
4 4 4 4 4 1 2 2 2 1 2 3 6 2 5 5 4 2 2 1 3 4 2 3 4 2 4 6 8 8 9 11 11 11 10 9 10 14 18 19 22 25 26 23 21 21 20 20 20 21 25 28 29 27 25 24 23 22 26 31 32 31 28 25 23 19 15 12 9 7 5 4 3 2 4 6 6 6 6 6 8 11 13 15 18 22 26
6 5 4 4 1 1 2 3 3 3 2 5 4 4 6 4 6 5 1 1 2 3 2 1 2 4 6 7 9 10 10 11 11 11 13 14 14 15 19 21 24 25 23 21 19 16 15 19 16 10 18 23 26 26 25 22 20 22 28 32 32 31 28 25 22 18 14 12 9 7 5 4 4 6 7 8 8 8 7 6 9 13 16 17 20 24 27
4 4 4 3 1 1 4 3 2 2 1 1 3 6 5 3 4 4 3 1 2 3 4 5 5 6 7 9 10 10 9 9 9 10 13 16 15 16 18 19 22 22 20 19 18 13 13 17 11 3 7 11 19 24 23 22 23 26 31 33 32 30 27 24 21 17 14 11 8 6 6 6 6 7 8 9 11 11 8 9 11 13 15 16 19 23 25
1 0 1 2 1 2 4 2 2 1 2 3 5 4 3 2 1 2 0 2 3 4 4 5 6 6 7 8 9 9 8 8 8 10 13 14 13 14 16 16 17 19 18 18 17 11 12 14 7 3 5 10 17 21 25 28 30 32 33 32 30 28 25 22 19 15 12 9 7 5 5 6 6 7 9 12 13 11 9 9 11 12 12 14 19 22 24
1 1 1 2 3 3 3 1 2 3 5 5 4 3 3 2 1 2 2 3 4 5 4 5 6 7 7 8 9 8 8 8 9 11 12 14 13 14 15 15 16 18 17 17 14 10 10 12 9 4 6 14 19 23 28 33 35 36 34 31 29 26 22 20 16 13 12 9 7 5 6 6 7 8 10 13 13 10 9 9 10 9 10 14 18 22 24
1 3 3 3 3 3 2 2 3 6 6 4 1 2 2 2 2 3 2 4 6 5 4 6 6 6 8 8 7 7 8 9 11 12 13 14 15 16 16 16 17 17 15 15 14 12 12 15 12 8 8 12 20 27 33 35 35 36 35 31 27 24 21 19 16 14 12 8 6 5 5 7 8 9 11 13 12 10 9 8 7 7 10 15 19 21 23
4 3 3 4 5 6 6 5 5 6 7 4 1 2 2 3 3 3 3 5 6 5 5 6 6 7 8 7 7 9 9 10 11 11 13 14 16 17 16 14 16 17 15 15 16 14 15 16 14 16 19 16 22 31 34 35 36 36 33 28 25 23 21 19 16 13 9 8 6 3 5 8 7 7 9 12 10 9 8 6 5 7 11 15 18 20 22
4 4 4 5 6 7 8 6 5 6 6 5 3 1 3 3 3 3 4 5 6 6 5 6 8 8 7 7 7 8 8 10 11 11 11 13 15 16 15 14 17 17 14 14 15 15 17 21 21 22 20 20 30 34 34 35 35 32 28 24 22 22 21 17 13 11 9 7 4 2 2 4 2 2 6 8 7 7 6 5 5 6 10 13 16 18 22
3 5 8 9 9 8 5 2 3 4 4 4 5 5 6 5 4 5 5 5 5 5 6 8 8 7 7 6 7 7 7 9 11 10 11 13 13 15 15 15 18 18 14 13 15 16 21 23 17 15 21 30 37 37 34 34 32 29 26 24 22 22 20 16 11 9 7 6 4 4 5 5 4 3 1 3 6 6 5 6 6 5 8 11 14 18 23
5 7 9 7 7 7 4 2 3 5 5 5 5 7 8 7 6 7 7 6 6 7 8 9 6 5 6 6 6 7 8 8 10 11 11 12 12 12 14 17 19 20 18 18 16 19 25 21 10 23 31 34 36 36 34 32 31 29 26 24 22 21 19 17 12 7 5 5 5 5 6 7 7 6 4 3 4 5 5 7 7 5 8 11 14 19 23
5 5 5 4 4 6 5 4 5 6 5 5 7 7 8 7 7 7 8 8 9 9 9 7 4 4 6 5 6 7 7 8 11 12 13 14 12 12 16 19 20 21 22 18 10 16 19 14 14 26 29 30 32 32 31 30 29 27 25 23 22 20 19 16 11 7 5 5 5 6 8 9 9 8 5 4 3 4 5 8 7 7 10 11 14 20 23
6 7 7 5 4 5 6 6 6 6 6 7 8 7 6 7 7 8 8 8 8 8 7 4 3 4 5 5 6 7 7 10 13 14 15 14 10 13 19 19 17 23 23 10 14 18 12 10 19 27 28 29 31 30 29 28 25 24 23 21 19 18 17 13 10 7 4 3 5 8 10 11 11 9 5 3 4 5 7 8 8 9 11 12 14 20 23
7 7 6 4 3 5 5 6 6 6 6 7 7 6 5 5 7 10 10 8 7 7 5 3 3 4 5 6 7 7 8 11 14 15 17 15 12 17 20 17 19 26 18 7 17 15 10 12 23 29 29 30 32 31 28 25 21 18 17 16 15 15 13 10 7 4 4 9 11 11 11 10 10 10 7 2 3 5 8 10 11 11 12 12 14 20 24
5 5 4 3 3 5 5 5 6 6 6 5 5 5 4 4 8 12 12 10 7 6 4 2 3 3 5 7 9 8 9 12 15 16 16 16 15 16 17 19 25 21 4 14 15 13 10 11 19 29 30 30 30 28 24 19 16 15 16 17 17 15 12 11 10 9 12 15 14 12 10 9 10 13 10 5 3 6 9 10 11 13 14 13 15 20 25
5 6 5 4 5 6 5 4 4 6 7 7 6 7 8 9 12 13 12 11 8 5 3 1 3 4 7 8 10 11 11 13 16 16 13 13 14 15 17 23 23 7 19 22 16 13 8 6 16 29 29 28 29 26 20 16 17 19 20 18 16 15 13 12 13 14 14 13 11 11 11 10 11 13 11 7 9 14 15 11 11 16 17 15 15 18 24
4 5 5 6 7 6 5 4 5 6 7 7 8 9 9 10 11 9 9 9 5 3 3 3 3 4 7 9 12 14 14 16 16 12 10 11 13 13 13 12 5 20 27 22 17 14 9 10 23 30 27 26 26 22 17 18 20 21 18 13 11 11 11 10 12 13 13 11 11 13 13 11 9 11 12 11 12 16 15 11 13 18 20 16 14 17 23
5 4 3 5 8 8 6 6 6 6 7 8 9 7 7 7 7 5 5 5 2 4 5 4 2 3 8 9 11 12 12 13 12 10 11 12 11 8 9 14 22 27 26 22 20 18 17 22 29 27 21 20 20 17 19 21 19 16 14 9 6 8 10 10 11 12 11 12 13 14 14 10 8 9 13 13 13 15 14 11 14 19 19 15 13 17 22
4 2 1 2 7 10 8 6 6 6 7 9 9 6 5 5 4 4 3 1 3 5 5 3 3 5 8 9 10 9 8 9 10 10 10 11 13 17 21 26 29 29 29 27 22 20 22 26 25 20 15 13 14 17 21 19 15 14 14 13 12 12 11 12 12 11 11 11 12 14 13 10 8 10 12 11 11 13 12 12 15 18 17 13 13 17 21
4 3 2 3 6 10 8 6 6 7 6 7 7 5 5 5 5 4 3 4 5 5 4 3 4 6 8 10 12 10 7 8 9 7 8 15 20 21 26 32 31 27 26 24 20 19 22 22 21 19 16 14 14 17 18 16 15 15 15 16 16 14 12 10 9 10 10 9 10 12 13 12 10 10 9 7 9 11 10 12 15 16 14 12 11 14 19
3 3 4 4 6 8 7 5 5 5 5 5 6 6 5 6 5 2 2 3 3 3 3 4 5 6 9 12 14 11 9 12 14 14 17 24 26 25 30 34 28 20 22 25 25 27 29 28 26 25 24 23 22 19 17 19 20 19 16 15 14 12 10 10 9 8 8 8 9 9 10 9 7 6 6 8 10 11 10 11 14 14 13 11 11 12 16
3 3 2 3 3 4 4 4 5 6 6 6 7 7 7 6 3 3 4 3 3 4 4 5 6 8 11 14 14 9 5 13 18 20 22 25 26 26 32 36 32 29 30 31 29 29 30 29 27 25 24 23 22 21 20 20 20 19 17 14 12 10 9 7 5 4 5 8 11 10 8 6 5 6 8 10 14 15 13 12 12 12 12 11 10 11 14
0 1 3 5 6 6 6 6 6 6 6 6 7 7 5 2 4 4 4 4 5 5 5 6 8 12 15 12 9 7 9 15 17 18 21 24 26 28 32 35 35 34 34 31 29 27 27 26 25 25 23 22 20 19 18 17 17 17 16 14 13 11 8 6 4 3 4 8 11 9 6 5 7 10 12 13 15 16 13 10 10 10 10 10 9 10 13
6 6 6 7 6 6 6 6 5 6 7 6 5 4 4 4 6 6 7 7 5 5 7 10 12 15 16 12 10 13 17 15 12 14 20 24 26 28 31 33 35 36 36 34 31 27 24 23 24 25 24 23 20 19 17 16 16 16 14 12 11 10 9 8 6 5 5 8 9 8 7 7 9 12 13 13 13 13 10 7 7 9 10 10 9 9 12
10 8 7 7 6 5 4 5 6 7 6 4 4 5 5 8 10 11 11 10 8 10 14 15 14 16 18 17 17 19 20 16 15 19 23 25 26 27 30 32 33 34 35 35 34 31 27 25 24 24 24 23 21 19 17 15 14 11 8 6 5 6 9 10 9 8 8 8 8 6 7 9 11 12 12 11 12 12 8 6 7 9 10 9 9 9 11
11 8 6 6 6 6 5 6 7 7 6 7 7 7 9 13 15 14 14 14 14 14 14 12 12 16 19 18 18 19 21 22 23 24 25 26 28 30 31 31 29 29 29 30 31 31 29 27 25 24 24 22 21 18 14 12 11 10 8 7 6 7 8 8 10 10 9 8 7 7 9 12 15 16 16 18 21 21 14 5 4 9 11 9 9 9 11
12 10 7 7 8 9 8 8 8 8 9 12 12 11 12 15 17 17 16 15 11 8 8 11 15 19 21 21 22 23 24 25 26 26 26 28 31 33 32 29 27 26 24 22 24 28 30 30 28 28 26 24 21 19 18 17 17 18 19 19 18 16 14 12 10 11 12 12 13 14 15 18 21 22 22 23 25 26 22 12 6 7 10 11 10 9 11
13 12 11 10 11 12 12 13 14 14 15 15 15 15 16 18 20 20 20 17 13 9 13 20 23 23 23 24 24 24 25 26 26 27 27 28 31 32 29 25 24 23 19 18 21 28 32 31 31 31 31 28 24 22 22 23 23 23 24 24 24 25 26 24 21 20 21 22 22 21 22 22 23 23 25 25 24 25 26 23 16 10 9 11 10 10 11
10 11 12 11 11 14 18 20 19 18 17 15 15 17 19 22 24 24 24 25 24 21 22 25 25 23 23 22 22 22 23 24 25 25 25 26 28 28 26 25 25 23 21 21 25 30 31 31 32 33 33 32 30 27 26 26 26 26 26 26 25 26 28 28 27 26 25 25 25 24 24 24 24 24 24 25 24 24 25 26 24 20 16 16 15 12 11
7 9 10 10 11 14 18 19 18 18 19 20 19 19 20 23 25 25 25 27 29 29 28 26 24 22 21 21 21 22 24 25 25 24 24 25 25 25 24 25 27 27 25 26 28 29 29 31 32 32 32 32 32 30 29 29 29 29 29 28 26 26 27 27 27 26 26 25 25 24 23 23 24 25 25 24 25 25 24 24 25 24 23 23 23 21 16
8 9 10 11 11 13 15 16 17 19 21 23 22 22 23 25 26 24 23 25 29 32 32 29 25 21 20 22 23 24 26 28 28 27 26 25 24 20 18 20 24 26 26 26 26 27 28 30 31 31 31 30 29 29 29 29 30 30 30 29 27 26 26 27 27 26 25 25 24 23 22 22 24 25 25 25 25 25 23 23 23 23 22 23 24 24 23
10 11 11 11 11 12 13 15 17 19 20 21 22 23 25 27 27 25 25 27 30 30 30 30 28 25 23 22 22 22 24 26 28 29 28 26 22 18 15 17 22 25 24 24 24 25 26 28 29 29 28 27 26 26 26 27 27 28 29 29 28 27 26 26 26 25 24 24 24 23 23 23 24 24 25 25 25 24 23 23 23 22 22 21 22 22 23
12 12 11 11 11 12 12 13 15 16 17 18 20 22 25 27 27 27 28 29 29 27 26 27 27 26 25 24 22 20 19 20 21 23 23 24 24 22 18 17 21 25 25 24 24 25 25 26 27 26 24 23 23 23 23 24 25 25 26 27 27 27 25 25 24 24 24 24 24 24 24 25 25 25 25 25 24 24 23 22 22 21 20 20 20 20 21
13 12 12 11 12 13 13 14 15 15 15 16 19 22 24 25 26 26 26 26 25 25 24 23 23 23 23 22 20 19 18 18 17 17 17 18 20 22 19 17 19 24 25 24 23 23 23 23 23 22 21 20 21 23 23 23 23 24 25 25 26 26 25 24 24 24 24 23 23 23 24 24 24 24 24 24 23 23 22 22 21 20 19 19 18 18 19
13 12 12 13 13 13 13 13 14 14 14 16 19 21 21 22 22 23 24 23 22 22 21 21 21 21 21 20 19 18 18 19 19 19 17 14 14 17 17 16 17 21 24 24 23 22 21 21 21 20 20 20 21 23 25 24 23 23 24 24 24 25 25 24 23 23 23 22 21 21 21 21 21 22 22 22 22 22 22 21 21 20 20 19 19 18 18
14 13 13 13 13 13 14 15 15 14 15 15 15 16 17 18 19 20 21 21 20 19 19 20 20 20 21 21 20 19 19 20 20 21 20 18 16 16 17 15 15 17 21 24 24 21 19 19 19 20 20 21 21 23 24 25 24 24 25 25 25 25 24 23 22 21 21 20 19 19 19 20 20 20 20 20 20 21 20 20 21 21 20 20 19 19 18
14 13 13 13 14 14 16 16 15 15 14 12 10 10 12 14 15 15 16 17 17 16 17 18 20 20 19 20 20 20 19 19 19 18 18 18 18 18 18 16 14 14 17 22 23 20 17 17 19 20 21 22 22 23 24 24 24 24 25 25 25 24 23 22 21 20 19 19 19 18 19 19 20 20 20 21 21 21 21 21 20 20 20 19 19 19 19
11 11 12 14 15 15 14 14 12 11 10 10 10 11 13 14 13 13 13 14 15 16 16 17 19 19 18 18 18 18 17 17 17 16 16 16 16 17 17 17 16 15 16 20 23 21 17 17 19 20 21 22 23 23 23 23 24 23 23 23 23 23 22 21 20 19 19 19 18 18 18 19 19 19 20 20 20 21 21 21 20 20 20 20 20 19 19
9 10 12 13 12 11 12 13 11 10 10 11 12 13 15 15 15 14 13 14 16 17 17 16 17 17 17 17 16 16 15 15 14 14 15 16 16 16 16 16 16 16 17 20 22 21 19 17 17 19 21 22 22 22 22 22 22 22 21 20 20 21 21 20 18 18 17 17 16 16 17 17 17 18 18 18 19 20 20 20 20 20 20 21 22 22 21
10 13 15 16 16 17 18 17 15 15 16 16 15 15 16 17 17 17 17 17 16 15 14 14 14 15 16 16 15 14 13 12 12 12 13 15 16 15 16 16 16 16 16 18 20 20 19 17 16 17 19 20 19 19 19 19 19 20 19 17 17 18 19 18 17 17 16 16 15 15 16 16 16 17 17 17 18 19 19 19 20 21 22 23 24 24 23
11 14 15 15 16 18 18 18 17 18 18 16 14 14 16 17 18 18 18 18 17 16 14 13 14 14 13 14 15 14 13 12 11 11 11 13 15 15 16 17 16 16 16 17 17 17 17 17 15 15 16 16 16 16 15 16 17 18 18 16 15 16 17 16 16 15 15 15 15 15 16 16 16 17 17 17 17 18 18 18 20 21 22 23 23 23 23
11 13 14 15 16 17 17 17 16 16 16 16 15 15 15 16 17 17 17 16 15 15 14 12 13 13 12 13 14 14 14 14 13 13 12 13 14 15 15 15 16 16 16 16 15 15 15 16 15 14 13 13 13 12 12 14 16 17 16 15 14 14 15 14 14 14 14 14 14 14 15 15 16 16 16 16 16 16 16 17 19 20 20 21 22 22 23
Wind_Direction
256 259 270 273 266 268 272 273 275 279 295 315 300 271 261 258 253 252 259 268 261 261 279 295 303 310 295 268 246 241 265 290 298 303 302 298 302 308 309 307 316 326 321 314 297 266 196 138 136 162 183 185 188 240 276 249 195 178 175 174 174 176 178 180 183 184 184 185 187 191 193 196 199 202 206 214 221 228 232 235 241 251 265 275 281 284 288
255 248 260 267 266 270 270 263 264 275 295 293 278 269 265 260 249 246 267 286 273 257 272 290 293 295 295 292 299 317 329 335 344 344 335 332 331 332 334 335 339 342 337 340 333 302 269 189 146 148 161 173 181 196 221 242 226 188 176 172 172 175 176 178 180 181 181 182 184 188 190 192 193 197 204 215 225 231 235 241 250 262 273 278 279 281 288
265 245 257 274 278 279 276 273 277 299 309 294 287 283 276 273 274 277 302 310 294 271 261 278 295 319 353 10 7 5 7 5 4 2 351 344 346 348 349 346 343 344 344 350 355 336 317 307 167 145 151 163 179 192 197 203 213 200 181 171 170 172 172 174 176 176 177 181 183 185 184 183 187 196 212 224 229 232 237 245 257 271 277 274 272 276 287
259 205 243 273 285 286 281 281 291 305 294 282 276 267 256 252 264 285 309 304 283 284 299 314 331 353 16 28 27 19 15 7 359 350 343 347 357 358 351 346 345 347 350 351 347 336 328 321 305 159 145 152 165 176 179 179 185 192 183 171 166 166 166 168 171 173 174 176 177 177 176 180 192 208 219 224 227 231 238 251 267 276 272 264 267 282 293
266 167 214 267 314 309 281 267 239 229 249 259 268 272 267 261 256 276 287 266 269 314 354 9 2 7 19 19 17 13 358 345 340 339 349 1 2 354 347 341 341 341 339 337 332 327 322 312 296 267 174 159 161 164 166 167 167 173 184 175 162 159 159 161 164 167 169 169 169 171 176 186 200 209 214 220 227 235 247 263 274 269 260 262 281 296 300
284 116 79 356 328 282 260 241 185 276 283 282 290 288 276 293 23 73 228 271 354 9 23 24 7 0 358 350 351 344 322 322 344 355 6 8 357 349 344 337 335 336 333 329 327 327 323 315 308 300 206 180 173 166 166 167 165 169 179 178 160 153 154 155 157 160 164 165 166 171 177 188 199 207 215 223 230 244 260 267 267 266 272 290 304 309 307
260 67 69 11 270 254 243 37 343 310 318 1 331 310 319 31 26 26 29 26 29 31 25 14 3 348 335 333 332 321 322 360 19 6 359 357 349 341 334 328 327 330 327 321 317 317 318 314 310 301 214 188 177 162 160 162 162 163 169 170 159 152 151 154 156 156 157 159 161 168 180 195 206 212 222 231 241 258 267 268 269 283 305 318 319 316 313
263 295 127 204 259 281 313 325 317 319 352 39 17 328 328 14 25 44 51 31 24 27 16 5 0 341 328 327 320 321 6 30 22 360 348 341 337 334 329 325 323 320 316 313 310 308 307 303 298 287 227 191 185 170 162 162 162 161 162 162 157 151 150 152 153 154 155 156 160 172 188 203 212 220 231 240 250 264 267 265 291 319 328 327 323 319 317
229 237 216 227 283 293 292 289 301 24 106 107 104 281 300 351 37 67 62 34 18 14 4 355 353 346 341 336 321 341 13 8 353 343 336 329 329 330 328 324 320 317 314 313 313 310 301 290 283 271 240 205 189 174 165 164 165 162 158 156 152 148 148 148 148 151 155 158 167 184 198 205 210 219 232 234 239 290 325 317 318 328 331 328 326 323 321
178 212 247 265 274 278 271 192 197 123 126 149 141 131 308 340 29 48 48 32 14 359 347 346 354 1 353 327 301 322 346 341 334 330 325 325 326 323 323 321 318 316 315 314 316 313 300 283 273 257 223 194 184 175 162 161 162 158 154 152 148 144 143 145 148 153 158 164 177 189 192 192 189 181 174 167 348 335 323 316 320 328 329 326 325 325 324
159 187 234 237 245 261 199 171 183 126 125 150 102 61 316 312 354 32 52 26 348 333 334 351 5 4 334 302 285 301 318 317 316 314 311 316 318 315 315 315 313 312 308 305 310 312 299 276 263 245 211 187 178 169 156 156 160 156 152 150 148 143 144 148 152 155 157 164 172 169 161 157 156 156 161 335 331 318 305 305 316 322 324 325 325 321 319
228 221 239 252 254 286 75 116 121 116 153 90 62 14 273 286 306 284 160 143 289 288 315 360 3 319 275 280 288 295 300 301 297 296 301 307 310 311 312 312 312 309 299 293 299 308 306 294 270 229 192 176 169 165 164 169 170 163 156 151 147 146 148 149 148 149 155 163 164 156 151 156 174 226 276 294 292 279 274 290 312 320 320 318 316 314 313
233 228 243 260 251 75 6 339 335 316 350 57 70 236 238 254 280 277 221 151 256 253 232 257 268 242 239 259 279 285 289 294 293 296 305 307 305 308 311 312 314 307 292 283 288 294 311 323 310 231 182 168 163 165 167 160 150 149 151 147 142 141 141 140 140 145 153 158 156 157 171 199 232 253 266 263 247 237 251 286 309 315 313 311 312 313 312
210 196 214 247 283 235 237 239 261 304 17 76 216 237 251 270 297 340 14 346 279 253 223 220 232 246 250 257 271 278 282 288 296 305 310 306 304 305 306 307 310 306 294 285 286 294 324 336 332 251 202 174 158 156 148 130 126 137 142 139 135 133 132 133 137 141 148 151 153 164 188 211 230 243 243 233 227 230 252 287 303 304 305 310 315 316 313
238 193 248 253 268 250 233 238 358 11 160 205 237 256 279 274 120 83 283 248 257 263 250 237 243 260 269 271 275 279 283 291 298 301 301 298 295 298 300 299 302 306 304 294 288 306 338 339 346 87 137 142 137 134 131 129 132 137 136 133 133 132 131 135 139 140 142 139 136 154 180 201 219 231 227 221 223 234 258 281 290 291 302 317 319 315 313
11 338 288 233 215 226 235 282 310 236 214 234 254 250 262 272 147 166 228 245 255 263 264 265 269 274 278 277 276 279 288 295 295 294 293 291 289 289 289 290 295 301 303 296 297 321 332 317 319 5 120 133 127 127 134 138 138 136 134 133 133 133 134 136 135 131 126 119 124 155 180 201 225 235 228 221 224 236 256 271 279 289 311 323 319 316 316
293 258 253 264 275 281 288 283 254 253 263 278 230 172 230 266 183 178 218 256 261 264 269 273 275 275 275 277 280 288 292 290 289 291 289 289 290 287 282 285 294 298 297 298 310 325 315 301 297 279 225 170 144 142 148 147 141 137 136 135 134 136 135 131 128 125 124 132 154 182 211 228 241 245 232 222 223 234 252 268 281 301 323 327 322 320 320
322 289 266 299 321 321 318 309 294 302 313 318 100 137 190 225 218 217 233 248 255 258 264 270 271 268 273 283 290 292 294 292 292 295 292 290 290 283 279 285 295 297 300 306 310 308 295 288 281 260 244 207 162 152 149 144 139 137 136 133 132 132 127 122 126 132 142 169 179 192 240 236 241 247 229 219 222 233 247 268 289 311 326 327 324 326 325
328 315 306 316 307 292 294 304 320 343 348 344 348 318 261 256 268 276 266 257 256 253 249 255 262 263 271 286 293 295 300 299 298 297 291 288 284 279 279 289 295 296 297 291 289 285 278 275 268 254 232 185 156 148 141 136 135 133 128 121 120 125 126 126 137 151 167 187 189 161 192 195 184 229 221 221 233 239 243 266 287 313 327 324 325 333 332
288 279 286 296 290 278 281 339 357 339 325 320 322 299 277 278 278 267 259 253 249 249 250 252 254 261 272 284 291 295 299 297 295 291 283 278 275 278 287 291 291 292 286 270 266 264 263 264 250 203 167 147 141 140 136 134 133 126 119 117 120 129 134 132 136 153 165 174 171 141 131 119 89 83 163 233 247 245 259 279 282 311 332 326 332 343 338
276 269 279 298 309 306 319 3 320 283 261 270 276 253 245 254 257 255 259 257 247 246 253 249 245 264 280 280 281 288 292 291 291 292 290 285 283 289 295 292 289 289 284 274 258 234 233 237 186 140 136 133 134 136 135 133 131 125 123 127 130 134 136 131 128 141 151 142 132 121 115 104 86 68 39 332 266 251 276 281 278 318 339 332 343 353 347
269 262 281 306 309 295 294 297 291 281 272 279 276 255 247 252 256 260 266 265 257 249 245 237 230 266 278 276 277 281 281 281 287 294 297 295 297 302 298 291 291 295 291 278 230 188 201 205 142 128 130 128 128 131 131 129 127 124 127 136 139 137 135 133 131 138 142 136 125 110 101 88 69 50 15 320 271 271 291 282 281 319 337 336 349 358 353
257 264 276 275 259 271 289 305 308 308 307 298 293 292 283 270 269 271 264 261 263 259 248 236 236 254 261 267 276 277 275 282 290 294 293 294 302 303 298 295 298 300 293 259 156 147 167 167 135 128 127 126 126 128 129 128 126 125 131 140 142 140 138 133 131 141 143 116 103 100 91 69 44 25 358 276 250 275 295 289 287 311 328 335 350 359 356
272 282 290 290 267 263 280 302 307 306 304 293 285 289 294 295 299 291 275 264 263 255 246 261 281 265 257 263 272 273 276 288 296 297 297 301 302 295 294 295 293 289 282 180 143 145 154 145 131 124 121 123 125 126 125 124 125 131 137 135 130 131 132 124 119 127 97 79 78 77 67 48 24 10 2 326 246 274 290 288 289 302 316 325 341 353 357
296 306 310 302 276 265 268 286 293 286 274 259 250 250 247 260 274 274 272 273 262 231 216 270 308 285 260 264 277 281 282 292 301 305 310 312 303 293 292 290 283 276 211 118 123 129 122 118 123 122 121 123 126 125 123 121 123 129 131 123 113 110 105 92 84 82 79 76 70 59 50 37 17 11 12 23 21 344 324 305 294 297 302 307 324 342 353
319 312 300 281 273 271 267 273 288 278 259 246 245 246 239 241 251 261 278 282 258 199 160 208 259 268 273 284 297 299 300 306 309 312 316 307 292 283 279 277 272 223 120 109 113 122 114 99 116 119 120 124 125 122 118 119 124 127 126 116 103 96 96 87 75 70 71 67 52 36 30 22 16 20 27 33 18 1 349 330 308 306 307 306 315 334 348
294 298 298 293 290 281 260 248 273 282 272 262 259 253 249 255 264 281 308 306 271 180 169 206 226 274 300 315 319 316 317 318 317 323 334 319 299 286 273 262 181 123 117 114 118 128 136 121 115 114 115 120 121 119 122 126 127 127 121 104 89 100 112 101 77 68 67 59 38 22 19 23 37 44 41 31 11 357 349 332 312 314 318 316 318 333 347
277 290 306 298 288 282 270 261 270 279 275 271 268 258 257 274 282 292 316 319 265 220 221 203 183 313 315 322 325 324 326 329 333 348 353 345 353 30 72 93 99 106 110 109 110 116 116 110 106 105 111 117 116 119 128 128 125 125 122 115 125 142 133 108 87 75 67 55 40 31 33 46 62 51 36 25 4 346 337 322 314 319 324 322 321 331 344
260 272 323 294 285 285 284 280 278 275 270 272 274 261 243 254 274 286 292 248 201 220 219 164 77 349 331 330 331 331 336 340 345 350 352 4 31 58 76 82 81 82 85 89 96 105 109 109 108 107 111 116 119 130 136 134 131 133 129 126 135 135 115 96 87 77 69 60 48 43 49 60 58 42 35 21 354 339 326 310 317 331 335 329 327 335 346
244 239 223 241 270 279 279 276 274 274 276 285 291 276 244 241 255 262 240 184 174 197 202 131 69 14 347 338 339 346 0 6 360 4 41 52 52 60 72 75 73 70 71 76 82 86 88 93 97 95 90 88 102 127 138 129 118 117 113 111 113 109 96 91 90 80 74 64 50 50 60 66 62 50 36 3 342 342 326 306 319 340 347 338 333 344 355
262 259 247 241 257 268 272 275 280 288 303 317 320 315 295 283 282 257 172 154 153 156 131 88 59 22 358 355 360 9 33 42 37 45 62 63 58 61 69 71 68 62 60 60 63 68 70 69 69 70 72 75 83 96 102 96 95 100 104 106 104 93 88 94 94 85 75 56 43 50 61 61 53 36 6 340 334 335 328 317 325 342 350 344 342 354 4
258 256 283 316 312 308 325 344 340 334 338 337 329 316 300 300 338 67 88 86 92 101 83 60 48 41 35 25 9 356 44 67 58 57 65 65 60 62 67 67 65 61 57 55 55 61 67 68 64 65 71 75 77 80 81 79 83 90 95 95 86 78 81 87 84 86 78 51 42 47 52 39 4 331 330 331 325 322 325 330 333 341 349 348 348 358 5
322 18 17 8 358 351 351 351 345 337 330 321 312 306 304 3 63 81 99 96 88 80 66 61 65 65 59 41 5 358 60 76 67 60 61 60 57 58 62 65 64 59 57 57 58 59 64 66 64 63 67 69 70 74 76 76 77 79 80 77 69 64 64 61 65 103 92 48 37 38 39 12 326 312 315 321 319 319 327 342 347 347 352 353 353 0 5
57 50 32 18 7 351 339 337 337 325 312 308 320 334 360 54 74 83 86 80 71 66 67 71 76 75 67 56 46 54 62 64 57 53 55 55 55 56 59 62 63 60 57 57 56 55 60 64 60 57 58 59 61 64 68 73 75 72 68 67 66 63 63 66 77 96 79 42 28 22 12 356 332 320 319 321 321 323 337 8 14 4 0 358 356 359 4
54 45 32 22 10 350 338 344 340 326 323 351 25 20 31 59 71 73 69 61 63 80 83 80 84 86 80 69 61 62 62 59 57 57 56 54 54 55 55 57 58 57 54 51 46 48 56 62 59 57 57 57 56 59 64 72 77 75 72 77 82 81 76 68 65 71 70 52 39 26 8 1 356 349 347 355 3 7 18 39 32 21 16 8 0 3 8
50 44 36 27 17 11 10 0 343 336 2 41 42 30 45 61 64 64 68 69 71 76 79 79 83 87 83 75 67 64 63 62 61 59 57 56 56 55 54 52 51 51 50 45 39 43 52 58 59 60 59 55 54 58 64 70 75 75 74 79 89 99 98 81 69 71 69 51 34 24 19 25 33 36 37 41 40 39 42 51 33 30 31 19 2 5 14
54 50 45 38 34 34 31 16 5 16 48 60 53 43 52 62 62 61 66 68 57 45 58 77 83 83 79 76 73 70 67 65 64 62 60 59 57 55 51 47 44 45 45 37 31 39 49 54 56 57 56 53 54 60 64 66 68 68 67 67 67 68 70 69 64 62 58 52 49 48 48 52 54 52 50 51 49 45 43 39 26 31 38 30 18 15 17
58 52 49 47 46 46 44 42 44 50 58 63 59 53 57 65 65 61 57 48 36 44 77 86 86 83 80 78 75 70 67 66 65 63 61 60 59 57 52 44 41 41 37 30 33 42 48 51 53 54 52 50 54 61 65 66 67 66 65 64 62 60 59 59 59 58 58 60 61 60 57 56 53 49 48 50 50 47 43 39 37 37 35 27 22 22 23
58 50 45 42 44 48 50 51 52 53 55 60 60 56 57 62 64 62 56 49 46 56 73 79 78 76 76 74 70 66 64 64 63 61 61 61 61 60 54 45 41 40 37 38 44 48 48 50 52 52 49 48 52 57 61 63 67 68 66 64 62 60 59 59 59 58 58 58 58 55 52 52 52 50 47 47 48 48 45 42 41 40 35 28 25 24 24
60 53 45 40 41 47 50 51 52 53 56 60 60 56 58 61 61 59 57 53 52 55 61 67 70 72 72 72 70 67 64 62 60 59 59 57 56 55 49 39 34 35 38 43 47 49 49 50 51 50 49 50 52 55 58 62 65 67 66 63 62 59 57 57 58 57 55 55 55 53 49 48 50 51 48 46 47 48 45 42 40 39 36 34 34 33 33
75 65 56 50 50 50 50 51 53 54 56 59 59 57 59 61 61 59 56 56 56 56 57 59 61 64 69 75 78 75 70 66 61 59 57 53 50 49 45 33 27 30 37 43 46 48 49 49 49 49 50 51 53 56 59 63 65 65 64 63 61 59 57 56 56 56 55 55 54 52 50 49 49 50 49 47 46 45 44 42 41 38 35 33 32 32 34
85 77 68 60 56 55 55 56 57 56 55 56 58 58 59 61 62 60 59 58 58 57 56 56 57 58 62 69 74 76 75 71 65 60 58 56 52 50 48 37 32 34 39 43 46 48 48 47 47 48 49 52 55 58 60 63 65 66 66 65 63 61 59 57 56 57 57 57 55 54 53 51 50 49 47 45 43 43 42 40 38 37 34 32 30 29 30
86 82 77 71 64 61 60 61 62 62 60 60 62 63 63 64 64 63 62 60 59 57 55 54 53 53 54 58 62 65 68 70 69 67 64 60 57 57 55 47 40 39 40 44 48 49 47 46 48 49 50 52 56 58 60 63 66 67 67 67 66 64 62 60 58 58 57 56 55 53 51 50 49 48 47 45 43 42 41 38 36 34 32 29 28 28 28
95 92 91 89 84 77 71 68 68 67 66 67 70 72 71 70 69 69 68 65 62 59 58 55 52 51 51 53 57 59 59 61 66 68 66 59 53 51 52 52 47 42 41 43 48 51 49 48 50 52 54 57 60 60 60 63 67 69 68 67 66 64 61 60 59 59 58 57 56 54 51 50 49 48 46 45 43 41 39 38 36 33 30 28 26 26 26
107 106 106 104 100 95 91 86 82 80 77 74 74 74 76 77 77 77 76 73 69 66 63 60 57 54 51 52 59 67 68 66 64 64 64 62 51 42 43 49 52 47 42 42 45 49 52 52 54 57 60 63 66 65 62 61 65 70 70 67 66 64 61 60 60 59 58 57 56 54 53 51 49 47 45 45 43 41 39 38 36 33 31 29 26 24 23
123 124 123 120 115 112 109 106 103 99 93 84 77 76 77 79 80 80 80 78 76 73 70 66 64 61 58 56 60 66 69 69 67 65 66 66 60 49 46 50 52 49 45 43 43 46 51 55 58 62 63 64 66 68 65 61 62 67 69 67 64 63 61 59 60 61 59 56 54 53 52 51 49 47 45 45 43 41 40 38 37 34 31 27 25 24 23
138 143 142 137 133 132 128 124 119 114 105 98 97 100 98 94 92 92 90 86 83 80 77 74 70 66 63 60 59 60 62 64 65 63 61 59 56 52 49 50 49 47 46 45 43 44 51 58 60 63 65 65 65 67 66 63 61 64 68 67 64 62 61 60 61 63 62 58 55 53 52 51 50 49 47 46 45 42 40 37 35 32 30 27 24 21 20
133 143 144 141 143 146 141 130 121 117 116 120 123 120 112 104 100 100 101 99 93 85 80 79 75 71 68 66 64 62 62 64 62 57 53 52 52 51 51 51 52 55 54 49 44 42 49 60 62 61 63 65 65 65 66 65 62 62 66 67 65 62 60 58 59 62 63 61 58 56 54 53 53 51 49 47 46 44 43 40 35 31 30 29 26 22 21
100 101 103 107 110 107 100 92 80 73 85 100 104 97 89 82 74 67 72 86 92 88 82 78 75 72 72 71 67 64 66 67 65 62 58 55 54 54 51 49 52 58 59 54 47 42 43 53 59 58 59 62 64 64 65 65 62 60 62 67 69 66 62 59 58 59 60 60 59 58 56 55 54 54 54 52 50 49 47 43 38 37 38 39 36 33 31
89 83 81 81 78 74 74 74 68 63 68 79 88 91 88 79 67 56 56 66 74 78 80 81 77 73 71 70 68 67 68 67 64 64 62 57 55 56 54 52 52 54 54 52 49 44 42 46 54 55 55 57 60 61 61 62 61 57 57 62 69 70 67 62 60 59 58 58 60 60 59 58 59 60 60 58 56 53 50 48 46 46 47 47 45 43 40
94 91 90 90 88 84 82 80 74 69 68 70 79 91 95 87 74 64 60 58 54 49 53 67 76 75 70 67 68 69 68 63 59 61 61 55 51 52 53 52 53 54 52 49 48 46 44 46 50 52 51 51 54 56 60 63 63 59 55 56 64 69 68 65 63 61 59 57 58 60 61 62 64 63 61 59 58 55 51 50 49 47 46 46 46 46 44
101 104 107 108 104 99 95 88 80 74 72 70 71 80 92 95 85 72 61 53 45 36 38 55 73 74 69 68 70 70 68 65 63 62 60 55 50 47 47 49 52 56 54 49 49 51 50 45 45 49 52 51 52 59 67 71 70 64 58 54 60 68 70 68 68 67 63 59 59 61 64 66 66 64 61 59 58 56 53 50 50 49 48 47 47 47 46